Regional Weather Roundup
Issued by NWS

Home | Current Version | Previous Version | Graphics & Text | Print | Product List | Glossary On
Versions: 1 2 3 4 5 6 7 8 9 10 11 12 13 14 15 16 17 18 19 20 21 22 23 24 25 26 27 28 29 30 31 32 33 34 35 36 37 38 39 40 41 42 43 44 45 46 47 48 49 50
000
ASUS43 KMKX 291811
RWRWI

WISCONSIN REGIONAL WEATHER ROUNDUP
NATIONAL WEATHER SERVICE MILWAUKEE/SULLIVAN WI
100 PM CDT TUE JUL 29 2014

NOTE: "FAIR" INDICATES FEW OR NO CLOUDS BELOW 12,000 FEET WITH NO
SIGNIFICANT WEATHER AND/OR OBSTRUCTIONS TO VISIBILITY.

WIZ001-002-006>008-014>016-023>028-291900-
NORTHWEST WISCONSIN

CITY           SKY/WX    TMP DP  RH WIND       PRES   REMARKS
SUPERIOR ARPT  CLOUDY    67  56  68 CALM      30.05F
6HR MIN TEMP:  58; 6HR MAX TEMP:  74;

ASHLAND        PTSUNNY   75  60  59 VRB6      30.03F
6HR MIN TEMP:  58; 6HR MAX TEMP:  75;

HAYWARD        MOSUNNY   75  58  55 VRB7      30.06F
6HR MIN TEMP:  54; 6HR MAX TEMP:  75;

SIREN          PTSUNNY   76  54  46 NW10G18   30.08S
6HR MIN TEMP:  56; 6HR MAX TEMP:  77;

RICE LAKE      PTSUNNY   73  56  56 NW5       30.09F
LADYSMITH      MOSUNNY   76  56  50 W9        30.07F
6HR MIN TEMP:  57; 6HR MAX TEMP:  76;

EAU CLAIRE     MOSUNNY   78  57  48 W7        30.06F
6HR MIN TEMP:  57; 6HR MAX TEMP:  79;

MENOMONIE      PTCLDY    78  55  45 W14G21    30.07F
6HR MIN TEMP:  59; 6HR MAX TEMP:  79;

NEW RICHMOND   MOSUNNY   76  56  49 NW8       30.09F
6HR MIN TEMP:  56; 6HR MAX TEMP:  78;

OSCEOLA        MOSUNNY   75  56  52 NW9       30.11F
6HR MIN TEMP:  54; 6HR MAX TEMP:  76;

$$

WIZ003>005-009-010-017-018-291900-
NORTH CENTRAL WISCONSIN

CITY           SKY/WX    TMP DP  RH WIND       PRES   REMARKS
WOODRUFF       MOSUNNY   74  58  56 W6        30.03F
6HR MIN TEMP:  57; 6HR MAX TEMP:  74;

RHINELANDER    MOSUNNY   71  55  56 W8        30.04F
6HR MIN TEMP:  54; 6HR MAX TEMP:  72;

EAGLE RIVER    MOSUNNY   70  51  51 N12       30.02F
6HR MIN TEMP:  52; 6HR MAX TEMP:  70;

LAND O LAKES   PTSUNNY   69  53  57 NW9       30.04S
6HR MIN TEMP:  55; 6HR MAX TEMP:  69;

PHILLIPS       PTSUNNY   71  56  60 NW5       30.04F
6HR MIN TEMP:  55; 6HR MAX TEMP:  71;

TOMAHAWK       MOSUNNY   70  55  58 NW10G17   30.05F
6HR MIN TEMP:  51; 6HR MAX TEMP:  70;

MEDFORD        MOSUNNY   71  55  57 NW10      30.06F
6HR MIN TEMP:  53; 6HR MAX TEMP:  71;

MERRILL        PTSUNNY   71  56  59 NW6       30.04F
6HR MIN TEMP:  50; 6HR MAX TEMP:  72;

$$

WIZ029-030-035-036-043>047-291900-
CENTRAL WISCONSIN

CITY           SKY/WX    TMP DP  RH WIND       PRES   REMARKS
WAUSAU         MOSUNNY   74  54  49 NW13G22   30.03F
6HR MIN TEMP:  57; 6HR MAX TEMP:  75;

MOSINEE        MOSUNNY   73  55  53 NW8       30.06F
MARSHFIELD     MOSUNNY   75  53  46 W9        30.05F
6HR MIN TEMP:  58; 6HR MAX TEMP:  76;

STEVENS POINT  MOSUNNY   71  52  50 NW10G18   30.04F
6HR MIN TEMP:  55; 6HR MAX TEMP:  73;

WAUPACA        SUNNY     77  53  42 NW7       30.02F
6HR MIN TEMP:  60; 6HR MAX TEMP:  77;

WAUTOMA        MOSUNNY   78  51  38 NW13G21   30.03F
6HR MIN TEMP:  61; 6HR MAX TEMP:  78;

WISC RAPIDS    MOSUNNY   77  52  41 N13       30.06F
6HR MIN TEMP:  57; 6HR MAX TEMP:  78;

CAMP DOUGLAS   MOSUNNY   75  57  53 NW7       30.05F
$$

WIZ011>013-019>022-031-037>040-048>050-291900-
NORTHEAST WISCONSIN

CITY           SKY/WX    TMP DP  RH WIND       PRES   REMARKS
ANTIGO         PTSUNNY   71  55  56 NW12      30.03F
6HR MIN TEMP:  53; 6HR MAX TEMP:  72;

STURGEON BAY   PTSUNNY   68  55  64 W7        29.99F
6HR MIN TEMP:  59; 6HR MAX TEMP:  68;

GREEN BAY      MOSUNNY   75  57  53 W10       29.99F
6HR MIN TEMP:  59; 6HR MAX TEMP:  76;

MANITOWOC      SUNNY     74  55  51 NW13      29.99F
6HR MIN TEMP:  60; 6HR MAX TEMP:  74;

APPLETON       PTSUNNY   72  54  53 W10       30.03S
CLINTONVILLE   MOSUNNY   72  52  49 W9        30.01S
OSHKOSH        MOSUNNY   75  55  49 W13G20    30.01F
6HR MIN TEMP:  59; 6HR MAX TEMP:  75;

$$

WIZ032>034-041-042-053>061-291900-
SOUTHWEST WISCONSIN

CITY           SKY/WX    TMP DP  RH WIND       PRES   REMARKS
LA CROSSE      SUNNY     80  57  45 NW10      30.06F HX  80
6HR MIN TEMP:  59; 6HR MAX TEMP:  80;

SPARTA         MOSUNNY   76  52  43 W9        30.07F
6HR MIN TEMP:  50; 6HR MAX TEMP:  77;

VIROQUA        FAIR      75  58  54 NW12      30.09F
6HR MIN TEMP:  55; 6HR MAX TEMP:  75;

BOSCOBEL       MOSUNNY   81  56  42 NW12      30.07F HX  81
6HR MIN TEMP:  56; 6HR MAX TEMP:  82;

PRAIRIE DU CHI MOSUNNY   78  51  38 NW10      30.08S
6HR MIN TEMP:  56; 6HR MAX TEMP:  79;

PLATTEVILLE    FAIR      78  55  44 NW12      30.08F
6HR MIN TEMP:  53; 6HR MAX TEMP:  78;

$$

WIZ056-057-062-063-064-067-068-291900-
SOUTH CENTRAL WISCONSIN

CITY           SKY/WX    TMP DP  RH WIND       PRES   REMARKS
BARABOO/DELLS  SUNNY     76  49  37 NW12      30.05F
6HR MIN TEMP:  57; 6HR MAX TEMP:  77;

LONE ROCK      MOSUNNY   81  57  43 NW10      30.05F HX  81
6HR MIN TEMP:  59; 6HR MAX TEMP:  82;

WATERTOWN      SUNNY     74  54  49 NW12      30.03F
6HR MIN TEMP:  57; 6HR MAX TEMP:  74;

MADISON        MOSUNNY   77  54  44 W7        30.04F
6HR MIN TEMP:  60; 6HR MAX TEMP:  77;

MIDDLETON      FAIR      77  50  38 NW10G16   30.05F
6HR MIN TEMP:  59; 6HR MAX TEMP:  77;

MONROE         PTSUNNY   77  54  44 NW12G20   30.05F
JANESVILLE     MOSUNNY   79  54  41 N10       30.04F
$$

WIZ051-052-058>065-066-070>072-291900-
SOUTHEAST WISCONSIN

CITY           SKY/WX    TMP DP  RH WIND       PRES   REMARKS
MILWAUKEE      MOSUNNY   76  53  44 NW12      30.01F
6HR MIN TEMP:  62; 6HR MAX TEMP:  76;

WAUKESHA       MOSUNNY   73  52  46 W8        30.04F
MILWAUKEE/TIMM NOT AVBL
RACINE         PTSUNNY   72  58  61 SE7       30.03F
6HR MIN TEMP:  61; 6HR MAX TEMP:  76;

BURLINGTON     SUNNY     73  53  49 NW13      30.03S
6HR MIN TEMP:  55; 6HR MAX TEMP:  73;

KENOSHA        MOSUNNY   75  56  51 NW12      30.02F
6HR MIN TEMP:  59; 6HR MAX TEMP:  76;

FOND DU LAC    MOSUNNY   75  54  47 NW13      30.02F
6HR MIN TEMP:  58; 6HR MAX TEMP:  75;

SHEBOYGAN      MOSUNNY   74  56  53 W8        30.00F
6HR MIN TEMP:  59; 6HR MAX TEMP:  74;

WEST BEND      SUNNY     72  52  49 NW13      30.02F
JUNEAU         SUNNY     72  47  40 NW13      30.04F
6HR MIN TEMP:  57; 6HR MAX TEMP:  73;

$$

LSZ147-162-291900-
LAKE SUPERIOR

STATION/POSITION TIME  TEMP    WIND        PRES    WAVE
                       AIR SEA DIR/SP/G            HT/PER
                 (UTC) (F)     (DEG/KT/KT) (MB)    (FT/S)
W MID LAKE BUOY  1750   51 43  260/  8/ 12 1016.7F   1
PORT WING        1700   70     240/  8/ 12 1016.9F
SAXON HARBOR     1700          330/  3/  5 1016.9F
$$

LMZ867-665-643>646-291900-
LAKE MICHIGAN

STATION/POSITION TIME  TEMP    WIND        PRES    WAVE
                       AIR SEA DIR/SP/G            HT/PER
                 (UTC) (F)     (DEG/KT/KT) (MB)    (FT/S)
N MID LAKE BUOY  1750   58 55  260/  6/  6 1014.6F   1
NORTHPORT PIER   1700   64     340/  5/  8 1015.2F
SISTER BAY       1740   70     300/  5/  6   N/A
KEWAUNEE LAKESHO 1700   71     270/  8/ 11 1016.5F
SHEBOYGAN LAKESH 1800   64     140/  7/  8 1016.0F
PORT WASHINGTON  1700   67      90/  6/  8 1016.9
ATWATER BUOY     1800   69     320/  8     1017.3F
MILWAUKEE LAKESH 1700   71     340/  9/ 12   N/A
S MID LAKE BUOY  1750   61 61  300/  6/  6 1017.0F   1
KENOSHA   LAKESH 1800   67     100/ 10/ 12 1015.9F
$$

TC  - TEMPERATURE IN CELSIUS
VSB - VISIBILITY IN STATUTE MILES
WCI - WIND CHILL INDEX
HX  - HEAT INDEX



USA.gov is the U.S. government's official web portal to all federal, state and local government web resources and services.